| time (UTC) | temp C | wind direction | speed KPH | gust KPH | rain 1hr cm | rain 24hr cm | rain mn cm | humidity % | barometer mb |
| 20260906184555 | 23 | 184 | 6.4 | 12.9 | 0.00 | 0.00 | 0.00 | 80 | 1017.9 |
| 20260906183052 | 23 | 155 | 6.4 | 14.5 | 0.00 | 0.00 | 0.00 | 81 | 1017.8 |
| 20260906181553 | 23 | 160 | 3.2 | 19.3 | 0.00 | 0.00 | 0.00 | 82 | 1017.6 |
| 20260906180106 | 23 | 203 | 4.8 | 16.1 | 0.00 | 0.00 | 0.00 | 82 | 1017.7 |
| 20260906174603 | 23 | 161 | 6.4 | 16.1 | 0.00 | 0.00 | 0.00 | 82 | 1018.0 |
| 20260906173059 | 23 | 155 | 4.8 | 19.3 | 0.00 | 0.00 | 0.00 | 82 | 1018.2 |
| 20260906171553 | 22 | 126 | 4.8 | 12.9 | 0.00 | 0.00 | 0.00 | 85 | 1018.6 |
| 20260906170053 | 22 | 0 | 3.2 | 12.9 | 0.00 | 0.00 | 0.00 | 85 | 1018.5 |
| 20260906164550 | 21 | 146 | 3.2 | 17.7 | 0.00 | 0.00 | 0.00 | 87 | 1018.7 |
| 20260906163059 | 21 | 158 | 4.8 | 12.9 | 0.00 | 0.00 | 0.00 | 87 | 1018.6 |
| 20260906161552 | 21 | 123 | 3.2 | 12.9 | 0.00 | 0.00 | 0.00 | 89 | 1018.6 |
| 20260906160047 | 21 | 134 | 1.6 | 4.8 | 0.00 | 0.00 | 0.00 | 89 | 1018.8 |
| 20260906154553 | 21 | 119 | 6.4 | 14.5 | 0.00 | 0.00 | 0.00 | 90 | 1018.6 |
| 20260906153111 | 20 | 0 | 0.0 | 12.9 | 0.00 | 0.00 | 0.00 | 91 | 1018.8 |
| 20260906151558 | 20 | 0 | 4.8 | 12.9 | 0.00 | 0.00 | 0.00 | 91 | 1019.1 |
| 20260906150058 | 20 | 0 | 0.0 | 8.0 | 0.00 | 0.00 | 0.00 | 92 | 1019.0 |
| 20260906144558 | 20 | 96 | 3.2 | 14.5 | 0.00 | 0.00 | 0.00 | 93 | 1018.7 |
| 20260906143053 | 20 | 0 | 0.0 | 12.9 | 0.00 | 0.00 | 0.00 | 93 | 1018.6 |
| 20260906141551 | 20 | 150 | 4.8 | 11.3 | 0.00 | 0.00 | 0.00 | 94 | 1018.7 |
| 20260906140048 | 19 | 143 | 3.2 | 17.7 | 0.00 | 0.00 | 0.00 | 94 | 1018.8 |
| 20260906134611 | 19 | 199 | 3.2 | 12.9 | 0.00 | 0.00 | 0.00 | 94 | 1018.5 |
| 20260906133056 | 19 | 181 | 4.8 | 16.1 | 0.00 | 0.00 | 0.00 | 94 | 1018.4 |
| 20260906131552 | 18 | 128 | 6.4 | 17.7 | 0.00 | 0.00 | 0.00 | 94 | 1018.1 |
| 20260906130053 | 18 | 138 | 4.8 | 17.7 | 0.00 | 0.00 | 0.00 | 94 | 1017.9 |
| 20260906124550 | 18 | 107 | 1.6 | 12.9 | 0.00 | 0.00 | 0.00 | 94 | 1017.9 |
| 20260906123054 | 18 | 143 | 1.6 | 8.0 | 0.00 | 0.00 | 0.00 | 94 | 1017.9 |
| 20260906121549 | 18 | 0 | 0.0 | 6.4 | 0.00 | 0.00 | 0.00 | 94 | 1017.8 |
| 20260906120048 | 18 | 0 | 0.0 | 6.4 | 0.00 | 0.00 | 0.00 | 93 | 1017.7 |
| 20260906114553 | 18 | 0 | 0.0 | 3.2 | 0.00 | 0.00 | 0.00 | 93 | 1017.6 |
| 20260906113044 | 18 | 0 | 0.0 | 4.8 | 0.00 | 0.00 | 0.00 | 93 | 1017.5 |
| 20260906111552 | 18 | 0 | 0.0 | 3.2 | 0.00 | 0.00 | 0.00 | 93 | 1017.6 |
| 20260906110052 | 18 | 0 | 0.0 | 0.0 | 0.00 | 0.00 | 0.00 | 93 | 1017.6 |
| 20260906104544 | 18 | 0 | 0.0 | 0.0 | 0.00 | 0.00 | 0.00 | 93 | 1017.4 |
| 20260906103104 | 19 | 0 | 0.0 | 0.0 | 0.00 | 0.00 | 0.00 | 92 | 1017.4 |
| 20260906101555 | 19 | 0 | 0.0 | 0.0 | 0.00 | 0.00 | 0.00 | 92 | 1017.2 |
| 20260906100047 | 19 | 0 | 0.0 | 0.0 | 0.00 | 0.00 | 0.00 | 92 | 1017.2 |
| 20260906094544 | 19 | 0 | 0.0 | 0.0 | 0.00 | 0.00 | 0.00 | 92 | 1017.0 |
| 20260906093052 | 20 | 0 | 1.6 | 6.4 | 0.00 | 0.00 | 0.00 | 92 | 1016.6 |
| 20260906091543 | 20 | 82 | 1.6 | 16.1 | 0.00 | 0.00 | 0.00 | 92 | 1016.5 |
| 20260906090115 | 20 | 0 | 0.0 | 0.0 | 0.00 | 0.00 | 0.00 | 91 | 1016.7 |
| 20260906084550 | 20 | 0 | 0.0 | 9.7 | 0.00 | 0.00 | 0.00 | 91 | 1016.5 |
| 20260906083049 | 20 | 0 | 0.0 | 1.6 | 0.00 | 0.00 | 0.00 | 91 | 1016.4 |
| 20260906081558 | 20 | 113 | 1.6 | 11.3 | 0.00 | 0.00 | 0.00 | 91 | 1016.5 |
| 20260906080044 | 20 | 112 | 0.0 | 6.4 | 0.00 | 0.00 | 0.00 | 91 | 1016.5 |
| 20260906074606 | 20 | 0 | 0.0 | 11.3 | 0.00 | 0.00 | 0.00 | 91 | 1016.4 |
| 20260906073104 | 20 | 136 | 1.6 | 11.3 | 0.00 | 0.00 | 0.00 | 91 | 1016.5 |
| 20260906071554 | 20 | 0 | 1.6 | 6.4 | 0.00 | 0.00 | 0.00 | 91 | 1016.8 |
| 20260906070051 | 20 | 0 | 0.0 | 6.4 | 0.00 | 0.00 | 0.00 | 91 | 1016.8 |
| 20260906064543 | 20 | 93 | 0.0 | 6.4 | 0.00 | 0.00 | 0.00 | 91 | 1016.7 |
| 20260906063057 | 20 | 140 | 1.6 | 6.4 | 0.00 | 0.00 | 0.00 | 91 | 1016.8 |
| 20260906061543 | 20 | 0 | 0.0 | 4.8 | 0.00 | 0.00 | 0.00 | 92 | 1016.8 |
| 20260906060050 | 21 | 0 | 0.0 | 0.0 | 0.00 | 0.00 | 0.00 | 91 | 1017.0 |
| 20260906054555 | 21 | 0 | 0.0 | 0.0 | 0.00 | 0.00 | 0.00 | 91 | 1017.1 |
| 20260906053053 | 21 | 0 | 0.0 | 0.0 | 0.00 | 0.00 | 0.00 | 91 | 1017.0 |
| 20260906051600 | 21 | 0 | 0.0 | 0.0 | 0.00 | 0.00 | 0.00 | 91 | 1017.1 |
| 20260906050104 | 21 | 0 | 0.0 | 3.2 | 0.00 | 0.00 | 0.00 | 91 | 1017.2 |
| 20260906044550 | 21 | 0 | 0.0 | 3.2 | 0.00 | 0.00 | 0.00 | 90 | 1017.4 |
| 20260906043057 | 21 | 0 | 0.0 | 0.0 | 0.00 | 0.00 | 0.00 | 90 | 1017.3 |
| 20260906041550 | 21 | 0 | 0.0 | 0.0 | 0.00 | 0.00 | 0.00 | 90 | 1017.2 |
| 20260906040046 | 21 | 0 | 0.0 | 0.0 | 0.00 | 0.00 | 0.00 | 89 | 1017.0 |
| 20260906034605 | 21 | 0 | 0.0 | 0.0 | 0.00 | 0.00 | 0.00 | 89 | 1016.9 |
| 20260906033048 | 21 | 0 | 0.0 | 1.6 | 0.00 | 0.00 | 0.00 | 89 | 1017.0 |
| 20260906031552 | 21 | 96 | 0.0 | 1.6 | 0.00 | 0.00 | 0.00 | 89 | 1017.2 |
| 20260906030045 | 21 | 0 | 0.0 | 3.2 | 0.00 | 0.00 | 0.00 | 88 | 1017.2 |
| 20260906024551 | 22 | 0 | 0.0 | 0.0 | 0.00 | 0.00 | 0.00 | 87 | 1017.1 |
| 20260906023050 | 22 | 0 | 0.0 | 0.0 | 0.00 | 0.00 | 0.00 | 87 | 1016.9 |
| 20260906021552 | 22 | 0 | 0.0 | 0.0 | 0.00 | 0.00 | 0.00 | 87 | 1016.6 |
| 20260906020105 | 22 | 0 | 0.0 | 1.6 | 0.00 | 0.00 | 0.00 | 86 | 1016.2 |
| 20260906014549 | 22 | 0 | 0.0 | 1.6 | 0.00 | 0.00 | 0.00 | 85 | 1015.9 |
| 20260906013101 | 22 | 0 | 0.0 | 6.4 | 0.00 | 0.00 | 0.00 | 85 | 1015.8 |
| 20260906011555 | 23 | 0 | 1.6 | 6.4 | 0.00 | 0.00 | 0.00 | 84 | 1015.4 |
| 20260906010055 | 23 | 133 | 0.0 | 6.4 | 0.00 | 0.00 | 0.00 | 83 | 1015.3 |
| 20260906004603 | 23 | 0 | 0.0 | 6.4 | 0.00 | 0.00 | 0.00 | 83 | 1015.5 |
| 20260906003056 | 23 | 0 | 3.2 | 11.3 | 0.00 | 0.00 | 0.00 | 82 | 1015.4 |
| 20260906001553 | 23 | 128 | 1.6 | 11.3 | 0.00 | 0.00 | 0.00 | 81 | 1015.4 |
| 20260906000100 | 24 | 94 | 3.2 | 14.5 | 0.00 | 0.00 | 0.00 | 80 | 1015.2 |
| 20260905234558 | 24 | 117 | 1.6 | 12.9 | 0.00 | 0.00 | 0.00 | 79 | 1015.4 |
| 20260905233051 | 25 | 162 | 4.8 | 16.1 | 0.00 | 0.00 | 0.00 | 78 | 1015.1 |
| 20260905231555 | 25 | 131 | 4.8 | 17.7 | 0.00 | 0.00 | 0.00 | 78 | 1014.9 |
| 20260905230045 | 25 | 95 | 3.2 | 17.7 | 0.00 | 0.00 | 0.00 | 77 | 1014.8 |
| 20260905224541 | 26 | 123 | 3.2 | 12.9 | 0.00 | 0.00 | 0.00 | 76 | 1014.5 |
| 20260905223052 | 26 | 122 | 4.8 | 14.5 | 0.00 | 0.00 | 0.00 | 76 | 1014.2 |
| 20260905221543 | 26 | 61 | 4.8 | 14.5 | 0.00 | 0.00 | 0.00 | 77 | 1014.2 |
| 20260905214545 | 26 | 71 | 4.8 | 12.9 | 0.00 | 0.00 | 0.00 | 76 | 1014.1 |
| 20260905213052 | 26 | 57 | 1.6 | 6.4 | 0.00 | 0.00 | 0.00 | 76 | 1014.3 |
| 20260905211553 | 26 | 59 | 1.6 | 6.4 | 0.00 | 0.00 | 0.00 | 76 | 1014.4 |
| 20260905210058 | 26 | 42 | 4.8 | 16.1 | 0.00 | 0.00 | 0.00 | 76 | 1014.2 |
| 20260905204550 | 26 | 24 | 8.0 | 19.3 | 0.00 | 0.00 | 0.00 | 75 | 1014.5 |
| 20260905203107 | 26 | 39 | 6.4 | 16.1 | 0.00 | 0.00 | 0.00 | 76 | 1015.0 |
| 20260905201552 | 26 | 61 | 6.4 | 14.5 | 0.00 | 0.00 | 0.00 | 77 | 1015.2 |
| 20260905200051 | 26 | 60 | 4.8 | 12.9 | 0.00 | 0.00 | 0.00 | 77 | 1015.3 |
| 20260905194544 | 26 | 35 | 3.2 | 8.0 | 0.00 | 0.00 | 0.00 | 76 | 1015.5 |
| 20260905193055 | 26 | 134 | 3.2 | 16.1 | 0.00 | 0.00 | 0.00 | 77 | 1015.8 |
| 20260905191550 | 27 | 61 | 3.2 | 8.0 | 0.00 | 0.00 | 0.00 | 75 | 1015.8 |
| 20260905190052 | 26 | 127 | 0.0 | 9.7 | 0.00 | 0.00 | 0.00 | 78 | 1016.2 |